Location: Prairie View Elementary School
(39.8322°N, 99.5698°W)
Time: 05:49:35
(UTC+00:00)

AQUARIUS - Pass Details

Date: 08 December 2019
Orbit: 650 x 653 km, 98.0° (Epoch: 21 January)

Event Time Altitude Azimuth Distance (km) Brightness Sun altitude
Rises 00:15:02 0° 170° (S) 2,959 7.7 -11.6°
Reaches altitude 10° 00:17:15 10° 172° (S) 2,053 6.9 -12.0°
Maximum altitude 00:21:43 76° 258° (WSW) 677 4.4 -12.8°
Drops below altitude 10° 00:26:14 10° 344° (NNW) 2,068 6.7 -13.6°
Sets 00:28:28 0° 346° (NNW) 2,984 7.5 -14.0°
